Showing default

OSCAR 3, 1293

Orbit data source: Space-Track

OSCAR 3, 1293 is a payload satellite owned by OSCAR (US) in LEO that was launched on Tue, 09 Mar 1965 UTC via a THOR SLV-2 AGENA D launch vehicle from the Air Force Western Test Range (AFWTR). Payload-class satellites include a variety of spacecraft equipped with specific instruments for various scientific and technological missions. These include communications satellites like Starlink; space stations such as the ISS; scientific satellites like the Hubble; Earth observation satellites from companies like Planet Labs, Umbra, and HawkEye 360; GPS; miniature CubeSats for education and research; and military/defense satellites.

Loading next visibility...
Identifier
1293, 1965-016F
Orbit
LEO
Country
Flag of USUS
Related business
Manufacturer
OSCAR
Mission
Non-operational spacecraft
Bus & Motor
OSCAR, Unknown motor
Mass
15 kg wet, 15 kg dry
Launch date (UTC)
1965-03-09 (61 years ago)
Launch vehicle
THOR SLV-2 AGENA D
Launch site
Air Force Western Test Range (AFWTR)
Object type
Payload
Rocket body
Debris
Shape & HBR
BOX + 4 ANT, 0.7 m
Radar Cross Section
Medium (>0.1 m² and <1 m²)

Expand to show TLE details & history
Last TLE update: 16 hours ago

TLE from 16 hours ago
0 OSCAR 3
1 01293U 65016F   26208.71371381 -.00000045  00000-0  51586-5 0  9992
2 01293  70.0750 311.0953 0015151  93.4369 266.8478 14.08486936137792
Epoch: 2026-07-27T17:07Z
TLE epoch observation values (Epoch: 2026-07-27T17:07:44.873Z)
Latitude
0.00008°
Longitude
108.76502°
Altitude
867.505 km
Speed
7.419 km/s
True Right ascension
20h 44m 22s
True Declination
0° 00' 00"
Sunlit
Object was in full shadow at epoch
Visualization orbit readout
Latitude
Unknown
Longitude
Unknown
Altitude
Unknown
Speed
Unknown
Apparent Right ascension
Unknown
Apparent Declination
Unknown
Sunlit
N/A
Visualization observer readout
Local Sidereal Time
22:38:14
Azimuth
Unknown
Elevation
Unknown
Doppler factor
Unknown
Orbital elements
Apogee altitude
873.548 km
Perigee altitude
851.607 km
Semi-major axis
7,240.715 km
Eccentricity
0.00152
Inclination
70.075°
RAAN
311.0953°
Arg. of periapsis
93.4369°
True anomaly
266.67446°
Mean anomaly
266.8478°
Eccentric anomaly
266.76113°
Mean motion
3.52266 °/min
Orbital period
102.2 mins
BSTAR
0.0000051586
Loading maneuver chart data...
Computing Atmospheric mass density...
Loading historical data...
Loading historical data...
Loading historical data...
Loading historical data...
Loading historical data...
Loading historical data...
Loading historical data...

Documentation

Showing up to 5 results
|